Location: Albuquerque Trailhead
(34.7934°N, 106.3736°W)
Time: 19:56:39
(UTC+00:00)

CAS-4A - Pass Details

Date: 01 April 2023
Orbit: 506 x 522 km, 43.0° (Epoch: 31 May)

Event Time Altitude Azimuth Distance (km) Brightness Sun altitude
Exits shadow 10:33:16 30° 32° (NNE) 941 ? -28.1°
Drops below altitude 10° 10:35:38 10° 53° (NE) 1,749 ? -27.7°
Enters shadow 11:32:43 -70° 252° (WSW) 12,495 ? -16.9°
